Time,TemperatureF,DewpointF,PressureIn,WindDirection,WindDirectionDegrees,WindSpeedMPH,WindSpeedGustMPH,Humidity,HourlyPrecipIn,Conditions,Clouds,dailyrainin,SoftwareType,DateUTC
2013-08-18 21:34:00,79.7,77.2,30.11,NE,50,0.0,0.0,92,0.00,,,0.02,Wunderground v.1.15,2013-08-19 01:34:00,
2013-08-18 21:36:00,79.7,77.2,30.12,NE,48,0.0,0.0,92,0.00,,,0.02,Wunderground v.1.15,2013-08-19 01:36:00,
2013-08-18 21:38:00,79.7,77.2,30.12,NE,43,0.0,0.0,92,0.00,,,0.02,Wunderground v.1.15,2013-08-19 01:38:00,
2013-08-18 21:40:00,79.7,77.5,30.12,NE,43,0.0,0.0,93,0.00,,,0.02,Wunderground v.1.15,2013-08-19 01:40:00,
2013-08-18 21:46:00,79.7,77.2,30.12,NE,52,0.0,0.0,92,0.00,,,0.02,Wunderground v.1.15,2013-08-19 01:46:00,
2013-08-18 21:52:00,79.8,77.6,30.12,East,96,0.0,0.0,93,0.00,,,0.02,Wunderground v.1.15,2013-08-19 01:52:00,
2013-08-18 21:58:00,79.9,77.7,30.12,ESE,118,0.0,1.0,93,0.00,,,0.02,Wunderground v.1.15,2013-08-19 01:58:00,
2013-08-18 22:04:00,79.8,77.6,30.12,East,79,0.0,1.0,93,0.00,,,0.02,Wunderground v.1.15,2013-08-19 02:04:00,
2013-08-18 22:06:00,79.8,77.6,30.12,East,79,0.0,1.0,93,0.00,,,0.02,Wunderground v.1.15,2013-08-19 02:06:00,
2013-08-18 22:12:00,79.8,77.6,30.12,ENE,75,0.0,0.0,93,0.00,,,0.02,Wunderground v.1.15,2013-08-19 02:12:00,
2013-08-18 22:18:00,79.7,77.5,30.12,NE,52,0.0,0.0,93,0.00,,,0.02,Wunderground v.1.15,2013-08-19 02:18:00,
2013-08-18 22:24:00,79.7,77.5,30.12,East,82,1.0,5.0,93,0.00,,,0.02,Wunderground v.1.15,2013-08-19 02:24:00,
2013-08-18 22:30:00,79.9,77.7,30.11,SE,127,2.0,2.0,93,0.00,,,0.02,Wunderground v.1.15,2013-08-19 02:30:00,
2013-08-18 22:36:00,80.0,77.8,30.11,East,86,1.0,2.0,93,0.00,,,0.02,Wunderground v.1.15,2013-08-19 02:36:00,
2013-08-18 22:42:00,79.9,77.7,30.11,SE,146,0.0,1.0,93,0.00,,,0.02,Wunderground v.1.15,2013-08-19 02:42:00,
2013-08-18 22:48:00,79.9,77.7,30.11,East,84,1.0,1.0,93,0.00,,,0.02,Wunderground v.1.15,2013-08-19 02:48:00,
2013-08-18 22:54:00,79.9,77.7,30.11,ESE,109,1.0,2.0,93,0.00,,,0.02,Wunderground v.1.15,2013-08-19 02:54:00,
2013-08-18 23:00:00,79.8,77.6,30.11,SE,124,1.0,1.0,93,0.00,,,0.02,Wunderground v.1.15,2013-08-19 03:00:00,
2013-08-18 23:06:00,79.8,77.9,30.11,ENE,75,0.0,3.0,94,0.00,,,0.02,Wunderground v.1.15,2013-08-19 03:06:00,
2013-08-18 23:12:00,79.7,77.8,30.12,East,97,1.0,2.0,94,0.00,,,0.02,Wunderground v.1.15,2013-08-19 03:12:00,
2013-08-18 23:18:00,79.7,77.8,30.12,SSE,160,0.0,2.0,94,0.00,,,0.02,Wunderground v.1.15,2013-08-19 03:18:00,
2013-08-18 23:24:00,79.6,77.7,30.12,SSE,160,0.0,0.0,94,0.00,,,0.02,Wunderground v.1.15,2013-08-19 03:24:00,
2013-08-18 23:30:00,79.5,77.6,30.12,SSE,160,0.0,0.0,94,0.00,,,0.02,Wunderground v.1.15,2013-08-19 03:30:00,
2013-08-18 23:36:00,79.5,77.6,30.12,SSE,161,0.0,0.0,94,0.00,,,0.02,Wunderground v.1.15,2013-08-19 03:36:00,
2013-08-18 23:42:00,79.5,77.6,30.13,SE,138,0.0,0.0,94,0.00,,,0.02,Wunderground v.1.15,2013-08-19 03:42:00,
2013-08-18 23:48:00,79.5,77.9,30.13,NNW,345,0.0,0.0,95,0.00,,,0.02,Wunderground v.1.15,2013-08-19 03:48:00,
2013-08-18 23:54:00,79.5,77.9,30.13,NE,41,0.0,0.0,95,0.00,,,0.02,Wunderground v.1.15,2013-08-19 03:54:00,